TimePST,TemperatureF,Dew PointF,Humidity,Sea Level PressureIn,VisibilityMPH,Wind Direction,Wind SpeedMPH,Gust SpeedMPH,PrecipitationIn,Events,Conditions,WindDirDegrees,DateUTC
12:08 AM,51.8,46.4,82,30.00,10.0,South,4.6,-,N/A,,Overcast,170,2013-03-07 08:08:00
12:38 AM,50.0,46.4,87,30.00,10.0,SSE,3.5,-,N/A,,Overcast,150,2013-03-07 08:38:00
12:51 AM,50.0,46.0,86,29.99,10.0,SSE,3.5,-,N/A,,Overcast,150,2013-03-07 08:51:00
1:27 AM,50.0,46.4,87,29.99,10.0,SE,3.5,-,N/A,,Overcast,140,2013-03-07 09:27:00
1:51 AM,50.0,46.9,89,29.99,10.0,SE,4.6,-,N/A,,Overcast,140,2013-03-07 09:51:00
2:51 AM,50.0,46.9,89,29.97,10.0,SSE,3.5,-,N/A,,Overcast,150,2013-03-07 10:51:00
3:28 AM,50.0,46.4,87,29.97,10.0,SSE,3.5,-,N/A,,Mostly Cloudy,150,2013-03-07 11:28:00
3:37 AM,50.0,46.4,87,29.97,10.0,SSE,4.6,-,N/A,,Mostly Cloudy,160,2013-03-07 11:37:00
3:51 AM,50.0,46.0,86,29.97,10.0,SSE,4.6,-,N/A,,Overcast,160,2013-03-07 11:51:00
4:18 AM,50.0,46.4,87,29.98,10.0,South,4.6,-,N/A,,Overcast,180,2013-03-07 12:18:00
4:51 AM,48.9,46.0,90,29.97,10.0,SSE,5.8,-,N/A,,Overcast,150,2013-03-07 12:51:00
6:37 AM,48.2,44.6,87,29.98,10.0,ESE,4.6,-,N/A,,Overcast,120,2013-03-07 14:37:00
6:51 AM,48.9,46.0,90,29.98,10.0,SE,4.6,-,N/A,,Overcast,140,2013-03-07 14:51:00
6:58 AM,48.2,46.4,93,29.98,10.0,SE,3.5,-,N/A,,Overcast,130,2013-03-07 14:58:00
7:51 AM,50.0,46.0,86,29.99,10.0,Calm,Calm,-,N/A,,Overcast,0,2013-03-07 15:51:00
7:59 AM,50.0,46.4,87,29.99,10.0,Calm,Calm,-,N/A,,Overcast,0,2013-03-07 15:59:00
8:15 AM,50.0,46.4,87,30.00,8.0,Calm,Calm,-,0.00,Rain,Light Rain,0,2013-03-07 16:15:00
8:32 AM,50.0,46.4,87,30.00,10.0,Calm,Calm,-,0.00,,Overcast,0,2013-03-07 16:32:00
8:51 AM,52.0,46.9,83,29.99,10.0,SSE,5.8,-,0.00,,Overcast,150,2013-03-07 16:51:00
9:28 AM,53.6,44.6,72,29.99,10.0,SSE,4.6,-,N/A,,Mostly Cloudy,150,2013-03-07 17:28:00
9:51 AM,54.0,43.0,66,29.98,10.0,SSE,4.6,-,N/A,,Mostly Cloudy,150,2013-03-07 17:51:00
10:08 AM,53.6,44.6,72,29.99,10.0,SE,6.9,-,N/A,,Overcast,140,2013-03-07 18:08:00
10:51 AM,57.9,43.0,58,29.98,10.0,SSE,9.2,-,N/A,,Overcast,160,2013-03-07 18:51:00
11:51 AM,57.9,39.0,49,29.96,10.0,South,9.2,-,N/A,,Overcast,180,2013-03-07 19:51:00
12:51 PM,55.9,37.9,51,29.94,10.0,SW,9.2,-,N/A,,Overcast,220,2013-03-07 20:51:00
1:51 PM,55.9,36.0,47,29.92,10.0,Variable,3.5,-,N/A,,Overcast,0,2013-03-07 21:51:00
2:51 PM,55.9,33.1,42,29.92,10.0,Variable,6.9,-,N/A,,Overcast,0,2013-03-07 22:51:00
2:58 PM,55.4,33.8,44,29.93,10.0,South,8.1,-,N/A,,Partly Cloudy,180,2013-03-07 22:58:00
3:51 PM,54.0,36.0,51,29.92,10.0,South,10.4,-,N/A,,Partly Cloudy,170,2013-03-07 23:51:00
4:51 PM,55.0,34.0,45,29.91,10.0,South,8.1,-,N/A,,Mostly Cloudy,190,2013-03-08 00:51:00
5:51 PM,52.0,30.0,43,29.91,10.0,South,11.5,-,N/A,,Overcast,180,2013-03-08 01:51:00
6:51 PM,51.1,33.1,50,29.91,10.0,South,5.8,-,N/A,,Overcast,170,2013-03-08 02:51:00
7:51 PM,50.0,39.0,66,29.90,10.0,SSE,3.5,-,N/A,,Overcast,150,2013-03-08 03:51:00
8:51 PM,50.0,41.0,71,29.89,10.0,SE,3.5,-,0.00,,Overcast,140,2013-03-08 04:51:00
9:23 PM,50.0,42.8,76,29.89,9.0,South,5.8,-,0.00,Rain,Light Rain,180,2013-03-08 05:23:00
9:51 PM,48.9,45.0,86,29.88,10.0,SSW,4.6,-,0.02,Rain,Light Rain,210,2013-03-08 05:51:00
10:51 PM,48.0,46.0,93,29.86,6.0,East,3.5,-,0.05,Rain,Light Rain,100,2013-03-08 06:51:00
10:58 PM,48.2,46.4,93,29.86,6.0,East,5.8,-,0.01,Rain,Light Rain,90,2013-03-08 06:58:00
11:51 PM,48.0,46.0,93,29.83,10.0,South,3.5,-,0.05,Rain,Light Rain,190,2013-03-08 07:51:00